Retour au catalogue

PEGASUS R/B

ActifVLEO
NORAD 27371·ROCKET BODY·🇺🇸 United States

Lancé Feb 5, 2002 depuis Cape Canaveral Space Force Station

Loading…

Prochains Passages (prochaines 24 heures)

TLE

FraisSource: Space-Track

Époque: Sep 14, 2026, 13:52 UTC

1 27371U 02004B   26257.57795986  .00039573  00000-0  38987-3 0  9999
2 27371  38.0134 308.8298 0000790 288.7001  71.3695 15.65029940355545

Suivez PEGASUS R/B en temps réel avec AllMySat

Download on the App Store